Location: Peach Mountain Observatory
(42.3967°N, 83.9367°W)
Time: 21:37:52
(UTC-05:00)

Transit 4A - Pass Details

Date: 18 January 2020
Orbit: 872 x 973 km, 66.8° (Epoch: 26 February)

Event Time Altitude Azimuth Distance (km) Brightness Sun altitude
Rises 06:54:28 0° 156° (SSE) 3,563 11.6 -12.2°
Reaches altitude 10° 06:58:16 10° 133° (SE) 2,603 11.4 -11.5°
Maximum altitude 07:01:17 14° 103° (ESE) 2,298 11.4 -11.0°
Drops below altitude 10° 07:04:15 10° 73° (ENE) 2,578 11.1 -10.5°
Sets 07:07:58 0° 49° (NE) 3,505 11.4 -9.8°
